Simultaneous Nadir Overpasses (SNOs) Predictions

Prediction of SNOs between GOES-17 and NOAA-19 Satellite Orbit:

Table of predicted SNOs for the next 14.0 days since TLE Epoch: 3/6/2020
Index Date Time (GOES-17) GOES-17 Lat,Lon NOAA-19 Lat,Lon Distance(km) Time Diff (sec)
1 03/07/2020 14:48:58 0.01,-137.21 0.10,-137.69 53.88 3
2 03/08/2020 14:35:54 0.01,-137.20 -0.52,-134.83 270.63 80
3 03/11/2020 02:57:01 -0.00,-137.17 -0.62,-139.82 303.20 80
4 03/12/2020 02:48:01 -0.00,-137.15 0.02,-136.97 21.14 80
5 03/13/2020 02:36:21 -0.01,-137.14 0.72,-134.12 345.18 80
6 03/15/2020 14:54:40 0.01,-137.12 0.49,-139.07 223.98 80
7 03/16/2020 14:45:41 0.01,-137.10 -0.19,-136.23 99.42 80
8 03/17/2020 14:34:01 0.01,-137.08 -0.87,-133.38 422.66 80
9 03/19/2020 03:04:05 -0.01,-137.04 -0.99,-141.20 476.31 80
10 03/20/2020 02:52:25 -0.01,-137.01 -0.29,-138.36 153.16 80




NCC Satellite Simultaneous Nadir Overpasses (SNOs) Prediction Service
